Flag for Germany Weather past 2 weeks in Warburg, North Rhine-Westphalia, Germany

Now
41 °F

Scattered clouds.


Feels Like: 38 °F
Forecast: 44 / 66 °F
Wind: 5 mph from Northeast

Location: Kassel / Calden


UV Index: 3 (Moderate)

Visibility: N/A


Pressure: 30.07 "Hg

Humidity: 87%

Dew point: 37 °F

Location of WarburgLocation

Historic Weather in Warburg

°F

Warburg temperature yesterday

Maximum temperature yesterday: 50 °F (at 3:20 PM)
Minimum temperature yesterday: 41 °F (at 6:50 AM)
Average temperature yesterday: 45 °F

Past Weeks' High & Low Weather Summary

 TemperatureHumidityPressure
High68 °F (Apr 7, 2:50 PM)100% (Apr 5, 6:50 AM)30.45 "Hg (Apr 5, 6:50 AM)
Low30 °F (Apr 16, 5:50 AM)33% (Apr 17, 6:20 PM)29.74 "Hg (Apr 4, 7:20 AM)
Average50 °F72%30.05 "Hg
* Reported Apr 4 7:20 AM — Apr 19 7:50 AM, Warburg, Weather by CustomWeather, © 2014

Note: Actual official high and low records may vary slightly from our data, if they occured in-between our weather recording intervals... More about our weather records

Advertising

Historic Weather Conditions — Data for Previous 24 hours

 ConditionsComfort  
Time TempWeatherWind HumidityBarometerVisibility
7:50 AM
Apr 19
41 °FPassing clouds.1 mph93%30.07 "HgN/A
7:20 AM37 °FScattered clouds.2 mph100%30.07 "Hg6 mi
6:50 AM37 °FLow clouds.5 mph100%30.04 "Hg4 mi
6:20 AM39 °FLow clouds.2 mph93%30.01 "Hg4 mi
5:50 AM37 °FPassing clouds.1 mph100%30.01 "Hg4 mi
9:50 PM
Apr 18
43 °FClear.7 mph81%29.92 "Hg10 mi
9:20 PM43 °FSunny.8 mph81%29.92 "Hg10 mi
8:50 PM43 °FPassing clouds.9 mph87%29.92 "HgN/A
8:20 PM45 °FBroken clouds.8 mph76%29.92 "HgN/A
7:50 PM45 °FScattered clouds.9 mph81%29.92 "HgN/A
7:20 PM45 °FBroken clouds.10 mph81%29.89 "HgN/A
6:50 PM46 °FBroken clouds.9 mph76%29.89 "HgN/A
6:20 PM45 °FBroken clouds.13 mph81%29.89 "HgN/A
5:50 PM50 °FBroken clouds.20 mph62%29.89 "HgN/A
5:20 PM50 °FBroken clouds.21 mph58%29.86 "HgN/A
4:50 PM48 °FBroken clouds.16 mph62%29.89 "HgN/A
4:20 PM50 °FPartly sunny.17 mph58%29.89 "HgN/A
3:50 PM48 °FBroken clouds.17 mph66%29.86 "HgN/A
3:20 PM50 °FBroken clouds.21 mph58%29.86 "HgN/A
2:50 PM48 °FScattered clouds.14 mph76%29.89 "HgN/A
2:20 PM43 °FLight rain. Scattered clouds.22 mph81%29.89 "Hg6 mi
1:50 PM48 °FScattered clouds.20 mph66%29.86 "HgN/A
1:20 PM48 °FScattered clouds.10 mph71%29.86 "HgN/A
12:50 PM43 °FBroken clouds.13 mph87%29.86 "HgN/A
12:20 PM45 °FBroken clouds.15 mph76%29.86 "HgN/A
11:50 AM43 °FLight rain. Partly sunny.20 mph81%29.86 "HgN/A
11:20 AM48 °FBroken clouds.17 mph66%29.86 "HgN/A
10:50 AM43 °FPartly sunny.10 mph87%29.86 "HgN/A
10:20 AM45 °FBroken clouds.16 mph76%29.86 "HgN/A
9:50 AM43 °FPartly sunny.17 mph87%29.86 "HgN/A
9:20 AM45 °FCloudy.9 mph81%29.86 "HgN/A
Weather by CustomWeather, © 2014

See weather overview